{"data":{"norad_id":53030,"intl_designator":"2022-076AW","name":"STARLINK-4160","alt_names":[],"object_type":"PAYLOAD","status":"ACTIVE","operator":null,"country":"US","launch_date":"2022-07-07","launch_site_code":"AFETR","launch_vehicle":null,"mission":null,"orbit_class":"UNKNOWN","rcs_meters":null,"size_class":null,"mass_kg":null,"dimensions":null,"purposes":["comms"],"wikipedia_slug":null,"has_3d_model":false,"image_url":null,"decayed_at":null,"tle_current":{"epoch":"2026-09-20T00:16:06.203424Z","epoch_age_seconds":111693,"freshness":"FRESH","line1":"1 53030U 22076AW  26263.01118291 -.00000352  00000+0  72243-6 0  9994","line2":"2 53030  53.1577 275.7853 0001285  85.6759 274.4390 15.34385834232543","mean_motion":15.34385834,"eccentricity":0.0001285,"inclination_deg":53.1577,"raan_deg":275.7853,"arg_perigee_deg":85.6759,"mean_anomaly_deg":274.439,"bstar":7.2243e-7,"rev_number":23254,"period_min":93.848624517476,"perigee_km":461.86629148707,"apogee_km":463.6243982497,"semimajor_km":6840.8823448684,"source":"CELESTRAK","updated_at":"2026-09-20T09:00:40.147843Z"}}}